Weather reports worldwide

Advertisment
Pamplona/Noain, Spain (8085): temperature & dewpoint: 16.09.2018 23:00:00 - 22.09.2018 23:00:00 (CEST)Pamplona/Noain, Spain (8085): wind speed: 16.09.2018 23:00:00 - 22.09.2018 23:00:00 (CEST)Pamplona/Noain, Spain (8085): wind direction: 16.09.2018 23:00:00 - 22.09.2018 23:00:00 (CEST)Pamplona/Noain, Spain (8085): reduced air pressure: 16.09.2018 23:00:00 - 22.09.2018 23:00:00 (CEST)Pamplona/Noain, Spain (8085): visibility: 16.09.2018 23:00:00 - 22.09.2018 23:00:00 (CEST)
Date & Time tt [°C] td [°C] ff [km/h] ff [kn] dd ppp [hPa] vv [km]
22.09.2018 23:00:00 20,4 14,5 13 7 NNW 1024,5 30
22.09.2018 22:00:00 21,3 14,0 18 10 NNW 1023,9 10
22.09.2018 21:00:00 23,0 12,9 5 3 N 1023,0 10
22.09.2018 20:00:00 24,6 13,8 13 7 NNE 1022,2 30
22.09.2018 19:00:00 26,4 13,5 22 12 N 1021,6 10
22.09.2018 18:00:00 28,3 13,8 22 12 N 1020,9 30
22.09.2018 17:00:00 29,5 12,4 21 11 N 1020,4 30
22.09.2018 16:00:00 29,5 13,0 13 7 N 1020,6 10
22.09.2018 15:00:00 29,3 13,6 9 5 N 1021,1 10
22.09.2018 14:00:00 27,4 13,0 4 2 WNW 1021,9 10
22.09.2018 13:00:00 25,3 14,1 2 1 N 1022,8 10
22.09.2018 12:00:00 22,7 14,0 4 2 E 1023,3 10
22.09.2018 11:00:00 20,3 14,4 2 1 NNW 1023,7 10
22.09.2018 10:00:00 18,7 14,1 2 1 S 1023,7 10
22.09.2018 09:00:00 15,9 13,2 4 2 S 1024,2 10
22.09.2018 08:00:00 13,4 12,1 2 1 - 1024,1 10
22.09.2018 07:00:00 14,0 12,6 2 1 E 1023,7 10
22.09.2018 06:00:00 14,3 12,7 8 4 SSE 1023,8 10
22.09.2018 05:00:00 14,5 12,7 5 3 E 1023,9 10
22.09.2018 04:00:00 15,1 12,9 4 2 NW 1023,9 10
22.09.2018 03:00:00 16,2 14,0 0 0 N 1024,1 10
22.09.2018 02:00:00 17,1 14,2 8 4 NNW 1023,9 10
22.09.2018 01:00:00 17,5 14,2 8 4 NW 1024,0 10
22.09.2018 00:00:00 17,8 14,3 11 6 NNW 1024,0 10
21.09.2018 23:00:00 18,4 14,3 16 9 NNW 1024,0 10
21.09.2018 22:00:00 18,9 14,4 15 8 NNW 1023,3 10
21.09.2018 21:00:00 19,3 14,5 18 10 N 1022,8 30
21.09.2018 20:00:00 20,0 14,1 24 13 N 1022,1 30
21.09.2018 19:00:00 21,3 12,7 29 16 N 1021,3 10
21.09.2018 18:00:00 23,3 12,7 24 13 N 1020,2 10
21.09.2018 17:00:00 24,6 12,0 29 16 N 1019,5 10
21.09.2018 16:00:00 25,6 12,1 21 11 NNW 1018,7 10
21.09.2018 15:00:00 25,5 12,8 21 11 N 1018,9 10
21.09.2018 14:00:00 25,8 13,3 15 8 NNW 1019,2 10
21.09.2018 13:00:00 25,1 13,6 22 12 NNW 1019,7 10
21.09.2018 12:00:00 24,7 12,6 15 8 NW 1019,6 10
21.09.2018 11:00:00 22,7 16,0 2 1 WSW 1019,5 10
21.09.2018 10:00:00 20,1 16,3 0 0 N 1019,4 10
21.09.2018 09:00:00 18,2 15,6 5 3 NNE 1019,3 10
21.09.2018 08:00:00 16,6 14,8 2 1 E 1018,8 10
21.09.2018 07:00:00 16,7 15,2 8 4 NE 1018,1 10
21.09.2018 06:00:00 16,9 14,9 0 0 N 1018,0 15
21.09.2018 05:00:00 16,9 15,0 4 2 E 1017,8 10
21.09.2018 04:00:00 17,4 14,7 2 1 SE 1017,9 18
21.09.2018 03:00:00 18,5 16,1 4 2 N 1017,5 12
21.09.2018 02:00:00 19,4 15,8 4 2 WNW 1017,2 13
21.09.2018 01:00:00 20,6 14,7 4 2 - 1017,0 8
21.09.2018 00:00:00 22,0 14,9 8 4 WNW 1016,7 10
20.09.2018 23:00:00 23,0 13,7 5 3 ENE 1016,1 10
20.09.2018 22:00:00 25,1 12,3 5 3 SSE 1015,4 10
20.09.2018 21:00:00 26,3 12,4 11 6 S 1014,8 10
20.09.2018 20:00:00 28,5 12,4 9 5 WSW 1014,3 30
20.09.2018 19:00:00 31,6 12,0 11 6 SW 1013,8 10
20.09.2018 18:00:00 32,8 12,1 8 4 SSW 1013,7 10
20.09.2018 17:00:00 33,2 11,1 13 7 SW 1014,2 30
20.09.2018 16:00:00 32,8 13,7 11 6 S 1014,8 10
20.09.2018 15:00:00 30,9 15,5 8 4 S 1015,8 10
20.09.2018 14:00:00 29,8 16,3 8 4 WSW 1016,9 10
20.09.2018 13:00:00 27,9 16,7 4 2 E 1018,2 10
20.09.2018 12:00:00 24,8 16,2 2 1 NE 1019,3 10
20.09.2018 11:00:00 21,9 16,5 4 2 - 1020,3 10
20.09.2018 10:00:00 18,6 16,4 0 0 N 1020,9 9
20.09.2018 09:00:00 16,4 15,1 0 0 N 1021,4 9
20.09.2018 08:00:00 16,1 15,0 4 2 SSE 1021,4 9
20.09.2018 07:00:00 15,8 14,8 0 0 N 1021,5 9
20.09.2018 06:00:00 15,9 14,8 5 3 E 1021,6 10
20.09.2018 05:00:00 17,0 15,7 4 2 - 1021,4 10
20.09.2018 04:00:00 17,2 15,8 0 0 N 1021,6 10
20.09.2018 03:00:00 17,9 16,2 4 2 SE 1021,8 15
20.09.2018 02:00:00 18,4 16,3 0 0 N 1021,7 10
20.09.2018 01:00:00 19,2 16,7 4 2 SSE 1021,5 15
20.09.2018 00:00:00 19,7 16,9 2 1 NW 1021,4 10
19.09.2018 23:00:00 20,2 17,2 9 5 NW 1021,2 10
19.09.2018 22:00:00 21,1 17,5 15 8 NW 1020,5 10
19.09.2018 21:00:00 22,3 17,9 13 7 NW 1019,9 10
19.09.2018 20:00:00 24,8 18,4 16 9 NW 1018,7 10
19.09.2018 19:00:00 28,3 16,2 16 9 N 1017,4 10
19.09.2018 18:00:00 29,6 14,0 8 4 NNE 1017,0 10
19.09.2018 17:00:00 31,1 13,8 4 2 ENE 1017,0 10
19.09.2018 16:00:00 31,1 14,1 8 4 WSW 1017,5 10
19.09.2018 15:00:00 29,6 15,3 5 3 NNE 1018,2 10
19.09.2018 14:00:00 28,2 16,9 2 1 WNW 1019,1 10
19.09.2018 13:00:00 26,0 16,9 4 2 SSE 1020,1 10
19.09.2018 12:00:00 23,8 16,5 4 2 E 1020,9 10
19.09.2018 11:00:00 21,7 16,3 2 1 WNW 1021,4 10
19.09.2018 10:00:00 19,0 16,3 2 1 SSW 1021,4 10
19.09.2018 09:00:00 17,8 15,8 4 2 - 1021,0 10
19.09.2018 08:00:00 17,8 16,3 0 0 N 1020,2 10
19.09.2018 07:00:00 17,5 16,2 0 0 N 1020,0 10
19.09.2018 06:00:00 16,9 15,6 4 2 - 1019,9 10
19.09.2018 05:00:00 17,0 15,9 0 0 N 1020,3 9
19.09.2018 04:00:00 17,5 16,2 4 2 NNE 1020,0 10
19.09.2018 03:00:00 17,6 15,9 0 0 N 1019,7 9
19.09.2018 02:00:00 18,5 16,5 2 1 WNW 1019,8 9
19.09.2018 01:00:00 19,1 17,1 5 3 WNW 1019,5 9
19.09.2018 00:00:00 19,7 17,3 5 3 NW 1019,2 9
18.09.2018 23:00:00 20,3 17,5 13 7 NW 1019,0 10
18.09.2018 22:00:00 21,2 18,0 15 8 NW 1018,0 10
18.09.2018 21:00:00 22,5 18,1 11 6 NW 1016,5 10
18.09.2018 20:00:00 24,4 17,9 9 5 WNW 1015,3 10
18.09.2018 19:00:00 27,6 17,2 13 7 SSW 1014,0 10
18.09.2018 18:00:00 29,3 13,9 8 4 SSW 1013,1 10
18.09.2018 17:00:00 30,4 14,6 9 5 SW 1013,1 10
18.09.2018 16:00:00 29,8 14,7 9 5 - 1013,4 10
18.09.2018 15:00:00 29,4 15,1 9 5 S 1013,9 10
18.09.2018 14:00:00 28,5 15,4 11 6 - 1014,6 10
18.09.2018 13:00:00 27,0 15,9 13 7 SW 1015,3 10
18.09.2018 12:00:00 26,9 16,4 5 3 S 1015,8 10
18.09.2018 11:00:00 23,9 16,4 4 2 SSE 1016,7 10
18.09.2018 10:00:00 23,1 16,3 0 0 N 1016,2 10
18.09.2018 09:00:00 19,4 15,2 4 2 - 1016,6 10
18.09.2018 08:00:00 18,3 14,8 2 1 NNW 1016,3 30
18.09.2018 07:00:00 18,9 14,8 4 2 NE 1015,8 30
18.09.2018 06:00:00 19,7 14,9 0 0 N 1015,8 30
18.09.2018 05:00:00 20,6 15,2 2 1 - 1015,6 10
18.09.2018 04:00:00 21,5 15,3 8 4 S 1015,3 10
18.09.2018 03:00:00 22,0 15,3 9 5 SSE 1015,3 30
18.09.2018 02:00:00 22,4 15,5 9 5 S 1015,2 30
18.09.2018 01:00:00 23,3 15,6 15 8 ESE 1015,2 10
18.09.2018 00:00:00 23,9 15,7 16 9 ESE 1015,2 10
17.09.2018 23:00:00 23,3 12,3 9 5 SE 1015,6 10
17.09.2018 22:00:00 23,7 12,3 8 4 SSE 1015,4 10
17.09.2018 21:00:00 25,3 12,5 15 8 W 1014,5 30
17.09.2018 20:00:00 27,1 11,6 15 8 S 1013,2 10
17.09.2018 19:00:00 29,4 10,6 15 8 SE 1012,2 30
17.09.2018 18:00:00 30,8 10,2 15 8 SSE 1012,1 10
17.09.2018 17:00:00 31,8 11,0 11 6 SSE 1012,9 10
17.09.2018 16:00:00 31,2 12,1 11 6 SSE 1013,8 10
17.09.2018 15:00:00 31,2 13,0 15 8 S 1014,6 10
17.09.2018 14:00:00 30,1 13,9 18 10 SSW 1015,7 30
17.09.2018 13:00:00 29,2 14,4 13 7 SSW 1016,4 30
17.09.2018 12:00:00 26,5 16,2 5 3 SSW 1017,5 10
17.09.2018 11:00:00 23,0 16,9 4 2 W 1018,4 9
17.09.2018 10:00:00 20,2 16,3 2 1 WSW 1019,4 9
17.09.2018 09:00:00 16,3 15,5 0 0 N 1020,4 8
17.09.2018 08:00:00 15,0 14,2 0 0 N 1020,5 8
17.09.2018 07:00:00 15,5 14,5 5 3 W 1020,0 13
17.09.2018 06:00:00 16,1 14,8 4 2 - 1019,7 10
17.09.2018 05:00:00 16,3 14,8 0 0 N 1020,0 9
17.09.2018 04:00:00 16,8 15,7 0 0 N 1020,2 9
17.09.2018 03:00:00 17,2 15,5 0 0 N 1020,5 10
17.09.2018 02:00:00 17,4 15,7 5 3 WNW 1020,6 24
17.09.2018 01:00:00 18,0 16,2 2 1 - 1020,4 10
17.09.2018 00:00:00 18,4 16,4 4 2 W 1020,5 10
16.09.2018 23:00:00 18,9 16,5 4 2 WNW 1020,4 10

tt = temperature
td = dewpoint
ff = wind speed
dd = wind direction
ppp = reduced air pressure
vv = visibility

Next stations